Weather History for Westerly, RI

Change the Weather History Date:

Thursday, September 26, 2013

  Actual Average (KGON) Record (KGON)
Temperature  
Mean Temperature 57 °F -  
Max Temperature 66 °F 69 °F 85 °F (1958)
Min Temperature 48 °F 51 °F 37 °F (1966)
Degree Days  
Heating Degree Days 8    
Growing Degree Days 7 (Base 50)    
Moisture  
Dew Point 49 °F    
Average Humidity 77    
Maximum Humidity 97    
Minimum Humidity 50    
Precipitation  
Precipitation 0.00 in - - ()
Sea Level Pressure  
Sea Level Pressure 30.04 in    
Wind  
Wind Speed 3 mph (NNE)    
Max Wind Speed 7 mph    
Max Gust Speed -    
Visibility 10 miles    
Events      
Averages and records for this station are not official NWS values.
T = Trace of Precipitation, MM = Missing Value Source: NWS Daily Summary

Daily Weather History Graph

Daily Weather History Graph

Search for Another Location

Airport:

Trip Planner

Search our weather history database for the weather conditions in past years. The results will help you decide how hot, cold, wet, or windy it might be!

Date:

Astronomy

Sep. 26, 2013 Rise Set
Actual Time 6:38 AM EDT 6:37 PM EDT
Civil Twilight 6:11 AM EDT 7:04 PM EDT
Nautical Twilight 5:39 AM EDT 7:36 PM EDT
Astronomical Twilight 5:06 AM EDT 8:09 PM EDT
Moon 11:29 PM EDT (9/26) 1:32 PM EDT (9/26)
Length of Visible Light 12h 53m
Length of Day
11h 58m
Waning Gibbous, 55% of the Moon is Illuminated
Sep 26
Waning Gibbous
Sep 26
Last Quarter
Oct 4
New
Oct 11
First Quarter
Oct 18
Full

Hourly Weather History & Observations

Time (EDT) Temp. Dew Point Humidity Pressure Visibility Wind Dir Wind Speed Gust Speed Precip Events Conditions
12:53 AM 57.0 °F 51.1 °F 81% 29.98 in 10.0 mi NNE 3.5 mph - N/A   Overcast
1:53 AM 57.0 °F 51.1 °F 81% 29.98 in 10.0 mi NNE 3.5 mph - N/A   Overcast
2:53 AM 55.9 °F 51.1 °F 84% 29.99 in 10.0 mi North 3.5 mph - N/A   Overcast
3:53 AM 55.0 °F 50.0 °F 83% 29.99 in 10.0 mi NNE 3.5 mph - N/A   Overcast
4:53 AM 54.0 °F 50.0 °F 86% 29.99 in 10.0 mi Calm Calm - N/A   Overcast
5:53 AM 51.1 °F 48.9 °F 92% 30.00 in 10.0 mi Calm Calm - N/A   Clear
6:53 AM 52.0 °F 48.9 °F 89% 30.01 in 10.0 mi Calm Calm - N/A   Overcast
7:53 AM 53.1 °F 50.0 °F 89% 30.02 in 10.0 mi Calm Calm - N/A   Overcast
8:53 AM 55.9 °F 50.0 °F 80% 30.04 in 10.0 mi Calm Calm - N/A   Overcast
9:53 AM 59.0 °F 50.0 °F 72% 30.05 in 10.0 mi Variable 5.8 mph - N/A   Overcast
10:53 AM 62.1 °F 48.0 °F 60% 30.06 in 10.0 mi ENE 6.9 mph - N/A   Overcast
11:53 AM 63.0 °F 48.0 °F 58% 30.05 in 10.0 mi North 6.9 mph - N/A   Overcast
12:53 PM 63.0 °F 48.0 °F 58% 30.05 in 10.0 mi North 5.8 mph - N/A   Overcast
1:53 PM 64.9 °F 46.9 °F 52% 30.04 in 10.0 mi Variable 6.9 mph - N/A   Mostly Cloudy
2:53 PM 64.0 °F 46.0 °F 52% 30.03 in 10.0 mi Variable 4.6 mph - N/A   Mostly Cloudy
3:53 PM 66.0 °F 46.9 °F 50% 30.03 in 10.0 mi NNW 6.9 mph - N/A   Overcast
4:53 PM 62.1 °F 48.0 °F 60% 30.04 in 10.0 mi South 3.5 mph - N/A   Mostly Cloudy
5:53 PM 62.1 °F 48.9 °F 62% 30.06 in 10.0 mi Calm Calm - N/A   Clear
6:53 PM 55.0 °F 51.1 °F 86% 30.07 in 10.0 mi Calm Calm - N/A   Clear
7:53 PM 52.0 °F 50.0 °F 93% 30.08 in 10.0 mi Calm Calm - N/A   Clear
8:53 PM 50.0 °F 48.0 °F 93% 30.10 in 10.0 mi Calm Calm - N/A   Clear
9:53 PM 50.0 °F 48.0 °F 93% 30.12 in 10.0 mi Calm Calm - N/A   Clear
10:53 PM 48.0 °F 46.9 °F 96% 30.12 in 10.0 mi Calm Calm - N/A   Clear
11:53 PM 48.9 °F 48.0 °F 97% 30.12 in 10.0 mi Calm Calm - N/A   Overcast